Date,TemperatureHighF,TemperatureAvgF,TemperatureLowF,DewpointHighF,DewpointAvgF,DewpointLowF,HumidityHigh,HumidityAvg,HumidityLow,PressureMaxIn,PressureMinIn,WindSpeedMaxMPH,WindSpeedAvgMPH,GustSpeedMaxMPH,PrecipitationSumIn
2013-1-1,48.6,35.5,25.5,15.1,9.2,0.6,59,36,19,30.30,30.17,9,1,13,0.00
2013-1-2,55.9,37.2,21.6,8.2,5.2,1.1,45,28,13,30.28,30.07,6,1,10,0.00
2013-1-3,55.0,36.7,23.2,9.6,5.7,0.4,46,29,14,30.29,30.12,6,1,10,0.00
2013-1-4,54.8,36.4,22.5,9.7,5.5,1.0,45,29,13,30.33,30.18,5,1,9,0.00
2013-1-5,55.3,38.7,24.1,9.0,4.7,0.6,43,26,12,30.35,30.06,3,0,7,0.00
2013-1-6,52.3,44.6,38.2,29.2,19.1,0.7,61,37,18,30.06,29.88,17,6,26,0.00
2013-1-7,62.6,47.7,37.0,19.9,11.4,5.4,43,24,12,30.05,29.90,16,6,27,0.00
2013-1-8,68.3,50.7,37.3,29.5,24.6,10.8,56,38,21,30.13,29.98,7,1,12,0.00
2013-1-9,63.8,50.0,34.1,29.6,26.1,23.0,65,41,25,30.15,29.69,14,2,20,0.00
2013-1-10,54.7,43.9,35.8,34.9,16.8,5.1,56,35,20,29.93,29.64,29,13,40,0.00
2013-1-11,46.4,36.7,26.7,14.9,9.2,1.7,53,33,17,30.05,29.92,8,1,16,0.00
2013-1-12,45.2,33.9,21.8,11.6,6.3,0.6,51,32,19,30.14,30.00,9,1,14,0.00
2013-1-13,41.1,27.7,14.8,6.8,1.8,-4.6,59,36,19,30.20,30.05,6,1,12,0.00
2013-1-14,41.6,28.7,13.3,-1.8,-6.0,-10.5,39,23,12,30.42,30.18,7,1,13,0.00
2013-1-15,48.2,31.3,17.5,2.1,-4.3,-10.4,31,22,13,30.55,30.37,6,1,10,0.00
2013-1-16,56.5,36.9,21.3,12.5,6.4,-1.6,50,29,17,30.49,30.27,5,1,9,0.00
2013-1-17,61.5,41.2,23.0,9.8,5.4,-1.1,44,25,11,30.38,30.19,6,1,10,0.00
2013-1-18,62.3,41.6,25.4,5.9,1.3,-2.1,31,20,10,30.30,30.15,6,1,12,0.00
2013-1-19,65.0,42.6,26.9,4.9,-0.1,-3.7,27,18,8,30.32,30.16,6,2,10,0.00
2013-1-20,64.8,44.4,27.5,3.6,-0.5,-4.1,26,16,8,30.25,30.07,7,2,10,0.00
2013-1-21,66.6,47.0,32.8,4.3,0.1,-4.2,24,15,7,30.21,30.05,7,2,12,0.00
2013-1-22,66.8,46.3,31.3,8.1,2.1,-4.4,26,17,9,30.21,30.05,6,1,10,0.00
2013-1-23,58.7,47.7,36.9,28.0,7.3,1.9,45,20,13,30.16,30.01,5,0,7,0.00
2013-1-24,52.9,49.5,45.2,48.5,44.0,24.9,92,82,41,30.15,30.03,2,0,5,0.15
2013-1-25,56.5,51.5,47.7,49.7,47.7,45.8,94,87,71,30.15,29.91,2,0,5,0.11
2013-1-26,65.3,55.6,49.9,59.2,49.0,37.8,100,81,51,29.92,29.67,21,3,28,0.04
2013-1-27,55.4,50.3,44.3,39.0,28.7,18.4,77,45,24,29.87,29.69,23,9,32,0.00
2013-1-28,54.2,44.0,36.6,25.5,18.8,7.4,62,38,16,30.05,29.86,10,3,17,0.00
2013-1-29,57.1,42.8,29.6,31.2,25.5,22.2,75,53,28,30.17,29.98,5,1,9,0.00
2013-1-30,66.6,50.7,38.5,32.3,29.9,27.5,70,48,24,30.29,30.13,8,2,12,0.00
2013-1-31,69.3,51.4,37.3,32.1,30.0,27.8,72,48,22,30.24,30.07,6,1,9,0.00